Estación municipal de Susqueda - Veïnat del Coll (La Selva, )

Consulta los datos en tiempo real de la estación municipal de Susqueda - Veïnat del Coll





Hora UTC 20:35
Temperatura 20.8 ºC
Humedad 66.6 %
Presión 1025.1 hPa
Pluja 0.0 mm
Velocidad viento 0.1 km/h
Dirección viento NE
Radiación solar 0.1 W/m²

Datos diarios 2026-09-02



Hora UTC (invierno +1h; verano +2h)
Temperatura (ºC) Humedad (%) Presión (hPa) Velocidad viento (km/h) Precipitación (mm) Radiación solar (W/m²)
Hora UTC Aire Humedad Presión Vel. Dir. Vel. Max Dir. Intent. máx 5 min. Rad. Sol.
00:05 19.9 67.7 1023.2 4.3 E 4.3 E 0.0 0.1
00:10 19.6 66.8 1023.2 3.7 E 8.5 E 0.0 0.1
00:15 19.6 66.7 1023.2 4.4 E 7.8 E 0.0 0.1
00:20 19.5 67.5 1023.2 4.0 ESE 7.4 E 0.0 0.1
00:25 19.5 68.4 1023.2 4.2 ESE 8.5 ESE 0.0 0.1
00:30 19.4 69.8 1023.2 4.9 ESE 8.1 SE 0.0 0.1
00:35 19.4 71.1 1023.1 4.2 ESE 8.1 E 0.0 0.1
00:40 19.3 75.2 1023.1 3.7 ESE 8.1 SE 0.0 0.1
00:45 19.2 76.9 1023.2 3.6 ESE 6.0 SE 0.0 0.1
00:50 19.0 74.7 1023.2 3.7 ESE 7.1 ESE 0.0 0.1
00:55 19.1 69.5 1023.1 4.1 ESE 8.8 ESE 0.0 0.1
01:00 19.5 65.7 1023.1 4.2 ESE 10.6 SE 0.0 0.1
01:05 19.4 66.0 1023.0 3.2 E 6.0 E 0.0 0.1
01:10 19.4 66.2 1023.0 3.9 ESE 6.7 SE 0.0 0.1
01:15 19.3 67.5 1023.0 4.9 SE 6.7 SE 0.0 0.1
01:20 19.3 67.9 1023.0 5.3 SE 7.1 SE 0.0 0.1
01:25 19.3 66.0 1023.0 3.8 ESE 6.4 ESE 0.0 0.1
01:30 19.3 63.8 1023.0 3.8 ESE 7.4 E 0.0 0.1
01:35 19.3 62.8 1022.9 3.5 ESE 7.1 E 0.0 0.1
01:40 19.4 62.0 1022.9 4.5 ESE 8.1 SE 0.0 0.1
01:45 19.4 61.7 1022.9 5.3 SE 8.5 SE 0.0 0.1
01:50 19.4 61.9 1022.9 3.5 SE 7.1 SE 0.0 0.1
01:55 19.4 61.5 1022.9 3.9 ESE 6.7 SSE 0.0 0.1
02:00 19.3 61.8 1022.9 1.6 ESE 3.5 E 0.0 0.1
02:05 19.2 62.0 1022.9 1.0 ESE 3.9 SE 0.0 0.1
02:10 19.1 62.4 1022.9 2.4 ESE 4.6 ESE 0.0 0.1
02:15 19.2 61.3 1022.8 3.3 SE 6.7 SE 0.0 0.1
02:20 19.3 60.6 1022.8 2.9 SE 5.3 SE 0.0 0.1
02:25 19.2 60.5 1022.9 1.4 SE 5.3 SE 0.0 0.1
02:30 19.2 60.8 1022.9 1.7 SE 4.2 SE 0.0 0.1
02:35 19.1 62.3 1022.9 2.0 SE 4.2 SSE 0.0 0.1
02:40 19.0 63.1 1022.9 1.5 SE 4.9 SE 0.0 0.1
02:45 18.7 64.8 1022.9 0.1 SSE 1.4 S 0.0 0.1
02:50 18.4 66.6 1022.9 0.1 SSE 1.8 SSE 0.0 0.1
02:55 18.3 68.9 1022.8 1.8 SE 3.2 SE 0.0 0.1
03:00 18.5 70.1 1022.8 2.5 SSE 3.9 SE 0.0 0.1
03:05 18.6 68.4 1022.9 1.6 SSE 2.8 SSE 0.0 0.1
03:10 18.5 66.9 1022.9 0.8 SE 2.5 SE 0.0 0.1
03:15 18.4 69.0 1022.9 3.2 SSE 4.9 SE 0.0 0.1
03:20 18.5 68.4 1022.9 2.6 S 4.2 SSE 0.0 0.1
03:25 18.5 64.2 1022.9 2.8 S 4.2 SE 0.0 0.1
03:30 18.3 63.4 1022.9 1.7 S 3.2 SE 0.0 0.1
03:35 18.1 63.4 1022.9 0.1 NNW 1.1 SSW 0.0 0.1
03:40 18.0 63.5 1022.9 1.1 SSW 2.8 SSW 0.0 0.1
03:45 18.1 62.8 1022.9 1.7 S 3.2 S 0.0 0.1
03:50 18.3 62.1 1022.9 1.1 S 1.8 S 0.0 0.1
03:55 18.2 62.3 1022.8 0.9 S 2.5 S 0.0 0.1
04:00 18.1 62.4 1022.8 2.2 S 3.5 S 0.0 0.1
04:05 18.2 61.3 1022.8 2.5 SSE 3.5 SSE 0.0 0.1
04:10 18.6 59.3 1022.8 2.2 SSE 3.9 S 0.0 0.1
04:15 18.6 59.0 1022.8 0.5 SSE 2.5 SE 0.0 0.1
04:20 18.4 59.9 1022.8 0.8 SSW 2.5 S 0.0 0.1
04:25 18.0 61.4 1022.8 1.2 S 2.5 SE 0.0 0.1
04:30 18.2 60.3 1022.8 2.1 SE 3.2 SSE 0.0 0.1
04:35 18.6 58.8 1022.7 1.8 SE 4.6 ESE 0.0 0.1
04:40 18.7 58.3 1022.7 4.8 SE 8.1 SE 0.0 0.1
04:45 18.7 58.1 1022.7 5.5 SE 7.8 SE 0.0 0.1
04:50 18.8 57.8 1022.7 2.2 SE 5.3 ESE 0.0 0.1
04:55 18.8 57.5 1022.7 1.0 SE 3.2 SSE 0.0 0.2
05:00 18.8 57.6 1022.7 1.0 ESE 3.5 ESE 0.0 0.5
05:05 18.7 57.8 1022.8 2.7 ESE 4.9 ESE 0.0 1.1
05:10 18.6 58.3 1022.8 2.6 ESE 4.6 ESE 0.0 2.1
05:15 18.5 58.6 1022.8 3.1 SE 5.6 SE 0.0 3.6
05:20 18.5 58.7 1022.8 3.2 ESE 6.0 SE 0.0 7.3
05:25 18.6 58.7 1022.9 3.8 ESE 6.4 SE 0.0 13.7
05:30 18.8 58.1 1022.9 3.4 ESE 5.6 SE 0.0 21.8
05:35 18.9 57.8 1023.0 3.9 ESE 6.0 SE 0.0 32.9
05:40 19.1 57.3 1023.0 3.4 ESE 4.9 SE 0.0 44.0
05:45 19.2 57.0 1023.0 3.4 ESE 6.4 E 0.0 53.5
05:50 19.5 56.1 1023.0 3.6 ESE 7.4 ESE 0.0 68.2
05:55 19.8 56.4 1023.0 2.9 ESE 5.6 ESE 0.0 82.3
06:00 20.2 55.3 1023.0 3.6 E 7.1 E 0.0 95.8
06:05 20.5 53.9 1023.1 4.1 E 7.4 E 0.0 108.9
06:10 20.8 52.3 1023.1 5.5 E 9.2 E 0.0 123.9
06:15 21.1 50.7 1023.2 4.0 E 9.2 E 0.0 139.3
06:20 21.3 51.8 1023.2 4.7 E 7.4 E 0.0 153.5
06:25 21.5 50.3 1023.3 5.3 ENE 8.8 ENE 0.0 167.7
06:30 21.5 49.8 1023.3 6.1 ENE 10.6 NE 0.0 182.4
06:35 21.6 50.0 1023.4 4.4 E 8.8 E 0.0 198.5
06:40 21.7 48.0 1023.4 4.0 NE 8.8 ENE 0.0 213.9
06:45 21.7 48.2 1023.5 3.9 ENE 7.1 ENE 0.0 228.9
06:50 22.1 48.9 1023.5 3.9 ENE 8.8 E 0.0 243.4
06:55 22.1 47.7 1023.6 3.8 ENE 8.1 NE 0.0 259.1
07:00 22.1 49.6 1023.6 4.9 ENE 9.9 E 0.0 273.4
07:05 22.4 48.6 1023.6 6.2 E 11.6 ESE 0.0 289.6
07:10 22.6 47.0 1023.6 5.2 E 9.2 ESE 0.0 305.6
07:15 22.8 47.2 1023.6 6.1 E 12.4 ENE 0.0 322.0
07:20 22.9 47.3 1023.6 5.6 E 12.4 E 0.0 338.6
07:25 23.1 44.8 1023.7 6.6 E 13.4 E 0.0 354.0
07:30 22.9 44.4 1023.7 7.6 ENE 13.8 ENE 0.0 369.8
07:35 22.9 44.5 1023.7 8.2 E 15.5 E 0.0 385.4
07:40 22.9 41.9 1023.7 6.8 ENE 12.7 ENE 0.0 400.9
07:45 23.1 39.8 1023.7 8.2 ENE 13.1 E 0.0 415.6
07:50 23.0 38.8 1023.7 6.0 ENE 12.4 E 0.0 429.7
07:55 23.6 34.5 1023.7 6.7 ENE 12.4 ENE 0.0 444.8
08:00 23.4 31.6 1023.7 6.3 ENE 13.8 ESE 0.0 455.1
08:05 23.7 32.5 1023.8 5.3 ENE 11.6 E 0.0 473.5
08:10 23.6 35.7 1023.8 4.7 ENE 10.9 ESE 0.0 487.1
08:15 23.8 34.6 1023.9 5.9 ENE 13.4 NE 0.0 501.8
08:20 23.4 38.5 1023.9 6.9 ENE 12.4 NE 0.0 515.2
08:25 23.3 38.4 1024.0 5.6 ENE 11.3 NE 0.0 529.1
08:30 23.5 37.9 1024.0 5.6 NE 10.9 E 0.0 542.8
08:35 23.5 39.1 1024.1 5.8 ENE 11.6 ENE 0.0 555.2
08:40 24.3 39.1 1024.1 5.4 E 13.1 E 0.0 567.8
08:45 24.6 38.8 1024.2 5.4 ENE 12.0 ENE 0.0 580.3
08:50 24.8 39.6 1024.2 4.3 ENE 11.3 NE 0.0 593.5
08:55 24.5 41.4 1024.2 5.9 ENE 12.4 E 0.0 607.7
09:00 24.6 42.0 1024.2 6.2 ENE 11.6 ENE 0.0 620.9
09:05 24.7 41.9 1024.3 5.6 ENE 11.6 E 0.0 633.9
09:10 25.0 41.4 1024.3 7.6 ENE 13.8 ESE 0.0 646.6
09:15 24.6 42.6 1024.4 6.2 ENE 12.7 ENE 0.0 658.9
09:20 24.9 42.8 1024.4 4.9 ENE 11.6 ENE 0.0 668.9
09:25 24.7 44.1 1024.5 4.1 ENE 9.9 E 0.0 681.6
09:30 25.1 42.9 1024.5 5.6 NE 15.2 ENE 0.0 692.6
09:35 24.5 44.6 1024.5 5.0 ENE 11.3 E 0.0 704.4
09:40 24.0 46.1 1024.5 5.0 ENE 12.7 E 0.0 706.8
09:45 24.9 44.6 1024.6 5.4 E 14.5 ENE 0.0 710.9
09:50 25.4 44.2 1024.6 4.7 E 12.7 E 0.0 712.2
09:55 25.1 45.0 1024.6 4.0 ENE 10.2 ENE 0.0 734.4
10:00 24.8 45.7 1024.6 4.0 ENE 9.9 E 0.0 745.0
10:05 24.7 46.2 1024.6 2.8 ENE 9.2 E 0.0 758.0
10:10 25.5 44.9 1024.6 4.6 ENE 10.2 ESE 0.0 757.8
10:15 25.8 44.4 1024.6 4.2 NE 10.2 ESE 0.0 753.3
10:20 25.3 45.5 1024.6 4.3 ENE 9.5 E 0.0 750.6
10:25 25.2 45.9 1024.6 4.2 E 9.2 E 0.0 746.2
10:30 25.6 45.1 1024.6 3.6 NE 12.0 E 0.0 784.3
10:35 25.5 45.6 1024.6 4.4 ENE 11.6 E 0.0 808.0
10:40 26.0 44.6 1024.6 4.1 ENE 11.3 E 0.0 810.0
10:45 26.2 44.5 1024.5 5.4 ENE 12.7 ENE 0.0 803.0
10:50 26.3 44.5 1024.5 5.4 ENE 12.4 ENE 0.0 820.0
10:55 26.9 42.9 1024.5 7.2 E 17.3 E 0.0 822.0
11:00 26.9 43.2 1024.5 5.8 E 14.5 ENE 0.0 825.0
11:05 27.0 42.8 1024.5 7.3 ENE 19.1 E 0.0 831.0
11:10 27.5 41.7 1024.5 7.8 E 18.0 ENE 0.0 839.0
11:15 27.5 42.2 1024.4 7.0 ENE 16.2 E 0.0 810.0
11:20 27.6 42.4 1024.4 7.7 ENE 17.3 ENE 0.0 826.0
11:25 27.7 41.6 1024.4 6.7 ENE 15.9 ENE 0.0 825.0
11:30 28.2 40.6 1024.4 8.6 E 23.6 ENE 0.0 821.0
11:35 28.2 40.0 1024.4 8.2 E 18.0 E 0.0 830.0
11:40 28.1 39.9 1024.4 10.3 E 21.2 E 0.0 834.0
11:45 27.9 39.9 1024.4 8.0 E 18.4 E 0.0 835.0
11:50 28.0 40.1 1024.4 7.4 E 18.4 ENE 0.0 830.0
11:55 27.9 40.1 1024.3 11.1 E 21.2 ENE 0.0 835.0
12:00 27.7 40.1 1024.3 10.4 ENE 20.8 NNE 0.0 832.0
12:05 27.9 39.7 1024.2 9.6 E 20.5 ENE 0.0 829.0
12:10 27.9 40.0 1024.2 9.7 E 21.9 NE 0.0 828.0
12:15 27.9 39.6 1024.2 9.8 E 19.8 E 0.0 826.0
12:20 27.7 40.0 1024.2 9.8 E 19.4 ENE 0.0 822.0
12:25 28.2 39.0 1024.2 8.9 E 23.3 NE 0.0 816.0
12:30 27.8 39.5 1024.2 10.0 E 20.8 E 0.0 812.0
12:35 27.8 39.3 1024.1 10.3 E 22.6 NE 0.0 808.0
12:40 27.6 39.5 1024.1 11.2 ENE 24.7 E 0.0 799.9
12:45 27.6 39.5 1024.1 11.2 E 22.2 ENE 0.0 786.0
12:50 27.5 39.6 1024.1 10.6 E 25.1 E 0.0 799.1
12:55 27.6 40.5 1024.0 11.3 E 24.3 ENE 0.0 778.3
13:00 27.4 42.0 1024.0 10.3 E 19.8 E 0.0 783.7
13:05 27.1 45.4 1023.9 11.7 E 27.5 E 0.0 766.7
13:10 27.1 47.1 1023.9 12.2 E 28.6 NE 0.0 736.8
13:15 26.6 50.1 1024.0 10.5 E 24.3 E 0.0 574.4
13:20 26.0 52.1 1024.0 10.6 E 24.3 ESE 0.0 551.8
13:25 25.7 53.3 1023.9 10.7 E 23.6 NE 0.0 706.9
13:30 26.3 52.6 1023.9 10.7 E 24.7 ESE 0.0 741.5
13:35 26.4 51.9 1023.9 12.2 E 26.1 E 0.0 730.4
13:40 25.8 54.1 1023.9 11.6 E 26.5 ESE 0.0 719.2
13:45 26.1 53.4 1023.9 9.2 ESE 22.6 E 0.0 707.1
13:50 26.2 53.3 1023.9 8.9 E 23.6 ENE 0.0 700.5
13:55 26.1 54.0 1023.9 10.9 ESE 22.9 E 0.0 687.8
14:00 26.1 54.2 1023.9 8.3 ESE 22.9 E 0.0 680.8
14:05 26.1 54.7 1023.9 7.6 SE 18.4 SE 0.0 673.3
14:10 26.0 55.5 1023.9 11.2 ESE 24.3 ENE 0.0 665.3
14:15 25.6 56.6 1023.9 9.6 ESE 19.8 NE 0.0 650.6
14:20 25.8 56.2 1023.9 10.0 ESE 21.2 E 0.0 643.6
14:25 25.5 57.3 1023.8 10.0 SE 19.8 SE 0.0 626.5
14:30 25.5 58.3 1023.8 8.4 ESE 19.1 E 0.0 615.6
14:35 24.9 60.3 1023.8 8.8 ESE 19.4 SE 0.0 603.4
14:40 24.6 61.3 1023.8 8.4 E 21.2 ENE 0.0 588.8
14:45 24.7 60.6 1023.7 8.6 E 18.7 SE 0.0 575.5
14:50 24.6 60.9 1023.7 8.9 E 22.2 ENE 0.0 502.9
14:55 24.6 60.8 1023.7 7.2 E 18.4 ENE 0.0 556.0
15:00 24.6 60.7 1023.7 8.9 E 18.0 E 0.0 537.4
15:05 24.5 60.3 1023.7 8.3 E 24.0 ESE 0.0 522.4
15:10 24.3 61.0 1023.7 8.2 ESE 15.2 ESE 0.0 504.2
15:15 24.3 60.7 1023.7 6.8 ESE 15.5 ESE 0.0 453.1
15:20 24.0 60.9 1023.7 10.7 SE 20.1 ESE 0.0 470.0
15:25 23.8 61.0 1023.7 8.3 ESE 15.5 ENE 0.0 451.0
15:30 23.6 61.5 1023.7 7.9 SE 13.8 SE 0.0 434.9
15:35 23.6 60.9 1023.7 9.9 ESE 18.4 ESE 0.0 433.2
15:40 23.6 60.3 1023.7 8.5 ESE 17.3 SE 0.0 417.9
15:45 23.5 60.1 1023.7 9.6 SE 16.9 SE 0.0 371.8
15:50 23.4 60.4 1023.7 8.8 SE 17.3 SE 0.0 249.1
15:55 23.3 60.1 1023.7 10.1 SE 19.1 SE 0.0 103.6
16:00 23.2 60.6 1023.7 8.2 ESE 15.9 SE 0.0 68.1
16:05 23.2 60.8 1023.7 5.9 ESE 13.4 ESE 0.0 69.4
16:10 22.8 61.8 1023.7 8.3 ESE 17.6 ESE 0.0 65.4
16:15 22.5 62.9 1023.7 8.3 ESE 16.2 E 0.0 52.3
16:20 22.3 63.2 1023.7 8.2 ESE 15.2 E 0.0 81.1
16:25 22.1 63.9 1023.7 8.9 SE 14.1 ESE 0.0 93.7
16:30 21.9 64.7 1023.7 6.9 ESE 12.0 SE 0.0 50.9
16:35 21.8 65.0 1023.7 6.2 SE 10.6 SE 0.0 48.2
16:40 21.8 65.2 1023.7 5.8 SE 10.9 SE 0.0 47.0
16:45 21.8 64.9 1023.7 7.5 SE 13.8 SE 0.0 51.9
16:50 21.9 64.4 1023.7 8.7 SE 15.5 ESE 0.0 55.8
16:55 21.9 64.8 1023.7 6.2 ESE 9.5 SE 0.0 54.2
17:00 21.8 65.3 1023.7 8.0 SE 12.0 ESE 0.0 48.2
17:05 21.7 65.5 1023.8 7.7 SE 14.1 SE 0.0 43.3
17:10 21.7 65.8 1023.8 4.6 SSE 8.5 SSE 0.0 38.9
17:15 21.7 66.2 1023.8 4.9 SSE 8.5 SE 0.0 35.4
17:20 21.6 66.3 1023.8 5.1 S 7.4 SSE 0.0 32.9
17:25 21.6 66.1 1023.8 3.6 SSE 7.4 S 0.0 30.3
17:30 21.6 66.0 1023.8 3.1 SSE 5.6 SSE 0.0 29.3
17:35 21.6 66.2 1023.9 2.3 S 5.3 S 0.0 28.7
17:40 21.8 64.8 1023.9 1.0 ENE 3.9 ENE 0.0 27.0
17:45 22.0 64.0 1023.9 0.7 E 2.8 SE 0.0 26.4
17:50 22.0 63.9 1023.9 0.8 E 3.2 SE 0.0 22.4
17:55 21.9 64.1 1023.9 1.3 ESE 3.2 ESE 0.0 20.1
18:00 21.8 64.4 1023.9 0.6 ENE 2.8 E 0.0 17.5
18:05 21.7 64.3 1023.9 1.7 ENE 4.6 E 0.0 14.5
18:10 21.7 64.0 1023.9 0.1 E 2.8 SE 0.0 12.0
18:15 21.6 63.7 1023.9 0.1 E 2.5 ENE 0.0 9.0
18:20 21.5 63.5 1023.9 0.1 NNE 2.5 N 0.0 5.8
18:25 21.5 63.4 1024.0 2.2 E 5.3 NE 0.0 4.6
18:30 21.6 63.8 1024.0 3.4 E 4.9 ENE 0.0 3.0
18:35 21.4 64.1 1024.1 3.4 SE 4.6 SE 0.0 1.4
18:40 21.1 65.2 1024.1 2.9 ESE 4.2 ESE 0.0 0.4
18:45 21.0 66.2 1024.2 2.6 ESE 4.2 ESE 0.0 0.2
18:50 20.9 66.9 1024.2 2.4 ESE 3.9 ESE 0.0 0.1
18:55 20.9 67.1 1024.3 1.1 E 2.8 E 0.0 0.1
19:00 20.9 66.3 1024.3 2.2 E 5.6 E 0.0 0.1
19:05 21.0 64.7 1024.3 3.4 E 6.7 ENE 0.0 0.1
19:10 21.2 64.6 1024.3 3.7 E 6.0 E 0.0 0.1
19:15 21.2 64.8 1024.4 3.1 ESE 7.1 ENE 0.0 0.1
19:20 20.9 65.6 1024.4 3.5 ESE 7.1 E 0.0 0.1
19:25 20.9 65.2 1024.6 3.1 E 5.6 E 0.0 0.1
19:30 21.1 63.7 1024.6 0.7 ENE 4.2 E 0.0 0.1
19:35 21.1 63.8 1024.7 0.0 NE 1.1 ENE 0.0 0.1
19:40 21.0 64.2 1024.7 1.7 ENE 4.9 ENE 0.0 0.1
19:45 20.9 65.1 1024.8 0.8 E 2.5 ESE 0.0 0.1
19:50 20.9 64.6 1024.8 0.8 ENE 3.2 ENE 0.0 0.1
19:55 20.9 63.4 1024.8 0.9 ENE 3.9 ENE 0.0 0.1
20:00 20.8 63.9 1024.8 0.0 ENE 1.1 ENE 0.0 0.1
20:05 20.7 64.7 1025.0 0.1 E 1.8 ENE 0.0 0.1
20:10 20.7 65.0 1025.0 0.2 ENE 1.8 E 0.0 0.1
20:15 20.7 65.4 1025.0 0.8 E 3.2 E 0.0 0.1
20:20 20.8 65.3 1025.0 2.3 ENE 5.6 E 0.0 0.1
20:25 21.0 65.3 1025.1 0.9 ENE 3.5 ENE 0.0 0.1
20:30 20.8 66.3 1025.1 0.4 NNE 2.8 N 0.0 0.1
20:35 20.8 66.6 1025.1 0.1 NE 1.4 NE 0.0 0.1
Máxima 28.2 76.9 1025.1 12.2 E 28.6 NE 0.0 839.0
Mínima 18.0 31.6 1022.7
Total 0.0